#timestamp,LO_Frequency,Hit,StdDev 
1522407615.0,286047012.0,Y
1522407616.0,286047012.0,P
1522407635.8,286047010.7,N
1522407655.6,286047007.1,N
1522407675.5,286047001.3,N
1522407695.3,286046998.5,N
1522407715.1,286046997.5,N
1522407735.9,286046996.2,N
1522407755.7,286046993.9,N
1522407775.6,286046994.8,N
1522407795.4,286046991.1,N
1522407815.2,286046987.1,N
1522407835.1,286046987.1,N
1522407836.0,286046987.1,N
1522407855.8,286046987.6,N
1522407875.7,286046989.3,N
1522407895.5,286046989.0,N
1522407915.3,286046991.1,N
1522407935.2,286046991.5,N
1522407955.0,286046991.0,N
1522407955.9,286046991.0,N
1522407975.7,286046990.6,N
1522407995.6,286046988.8,N
1522408015.4,286046989.1,N
1522408035.3,286046989.5,N
1522408055.1,286046989.6,N
1522408056.0,286046989.6,N
1522408075.8,286046989.7,N
1522408095.7,286046991.3,N
1522408115.5,286046992.5,N
1522408135.4,286046992.7,N
1522408155.2,286046993.2,N
1522408175.0,286046990.2,N
1522408175.9,286046990.2,N
1522408195.8,286046992.8,N
1522408215.6,286046993.0,N
1522408235.5,286046994.5,N
1522408255.3,286046994.2,N
1522408275.1,286046992.2,Y
1522408295.9,286047001.9,P
1522408315.7,286047003.8,N
1522408335.6,286047001.3,N
1522408355.4,286047001.5,N
1522408375.2,286047004.3,N
1522408395.1,286047001.3,N
1522408396.0,286047001.3,N
1522408415.8,286047003.2,N
1522408435.6,286047004.1,N
1522408455.5,286047003.7,N
1522408475.3,286047003.9,N
1522408495.2,286047003.1,N
1522408515.9,286047005.6,N
1522408535.7,286047003.2,N
1522408555.6,286047003.0,N
1522408575.4,286047003.6,N
1522408595.3,286047003.3,N
1522408615.1,286047002.9,N
1522408635.8,286047003.7,N
1522408655.7,286047005.9,N
1522408675.5,286047003.2,N
1522408695.4,286047005.4,N
1522408715.2,286047005.6,N
1522408735.0,286047005.4,N
1522408735.9,286047005.4,N
1522408755.8,286047005.5,N
1522408775.6,286047003.6,N
1522408795.4,286047001.4,N
1522408815.3,286047002.6,N
1522408835.1,286047001.5,N
1522408855.9,286047003.4,N
1522408875.7,286047005.8,Y
1522408895.5,286047002.2,P
1522408915.4,286047002.6,P
1522408935.2,286046999.7,N
1522408955.1,286047001.9,N
1522408956.0,286047001.9,N
1522408975.8,286047002.0,N
1522408995.6,286047002.7,N
1522409015.5,286047002.6,N
1522409035.3,286047002.0,N
1522409055.2,286047002.5,N
1522409105.9,286047003.7,E
1522409115.9,286047002.3,N
1522409135.7,286046999.0,P
1522409155.5,286047000.7,N
1522409175.4,286047001.2,N
1522409195.2,286046998.7,N
1522409215.0,286046998.1,N
1522409215.9,286046998.1,N
1522409235.8,286046998.7,N
1522409255.6,286046999.0,N
1522409275.5,286047001.1,N
1522409295.3,286046998.5,N
1522409315.1,286046999.6,N
1522409335.9,286046999.1,N
1522409355.7,286046998.1,N
1522409375.5,286046999.4,N
1522409395.4,286046996.9,N
1522409415.2,286046997.7,N
1522409435.1,286046997.9,N
1522409436.0,286046997.9,N
1522409455.8,286046994.9,Y
1522409475.6,286046999.2,P
1522409495.5,286046996.5,P
1522409515.3,286046997.3,N
1522409535.2,286046997.1,N
1522409555.9,286046999.3,N
1522409575.7,286046998.7,N
1522409595.6,286046999.1,N
1522409615.4,286046999.5,N
1522409635.2,286046998.8,N
1522409655.1,286046998.7,N
1522409656.0,286046998.7,N
1522409675.8,286046999.2,N
1522409695.7,286046999.5,N
1522409715.5,286046998.4,N
1522409735.3,286046998.2,N
1522409755.2,286047000.4,N
1522409775.0,286047000.6,N
1522409775.9,286047000.6,N
1522409795.8,286047000.9,N
1522409815.6,286047000.2,N
1522409835.4,286047000.3,N
1522409855.3,286047000.5,N
1522409875.1,286047001.1,N
1522409895.9,286046998.5,N
1522409915.7,286046998.9,N
1522409935.5,286047001.2,N
1522409955.4,286047000.5,N
1522409975.2,286047002.4,N
1522409995.0,286047000.8,N
1522409995.9,286047000.8,N
1522410015.8,286046998.5,N
1522410035.6,286047002.8,N
1522410055.5,286047000.2,N
1522410075.3,286047002.1,N
1522410095.1,286047000.0,N
1522410115.9,286046999.8,N
1522410135.7,286047002.4,N
1522410155.5,286047002.1,N
1522410175.4,286047002.5,N
1522410195.2,286047000.0,N
1522410215.1,286047000.1,N
1522410216.0,286047000.1,N
1522410235.8,286046999.9,N
1522410255.6,286046998.1,N
1522410275.5,286047000.9,N
1522410295.3,286047002.6,N
1522410315.1,286047001.1,N
1522410335.9,286047000.5,N
1522410355.7,286047001.9,N
1522410375.6,286047002.8,N
1522410395.4,286047000.2,N
1522410415.2,286046998.4,N
1522410435.1,286047005.1,Y
1522410436.0,286047005.1,P
1522410455.8,286047010.3,P
1522410475.7,286047018.1,P
1522410495.5,286047018.1,N
1522410515.3,286047015.2,N
1522410535.2,286047009.8,N
1522410555.0,286047006.4,N
1522410555.9,286047006.4,N
1522410575.7,286047003.1,N
1522410595.6,286047001.7,N
1522410615.4,286047000.4,N
1522410635.3,286046999.9,N
1522410655.1,286047000.0,N
1522410656.0,286047000.0,N
1522410675.8,286046998.5,N
1522410695.7,286046996.6,N
1522410715.5,286046999.6,N
1522410735.4,286046998.0,N
1522410755.2,286046997.9,N
1522410775.0,286046995.2,N
1522410775.9,286046995.2,N
1522410795.8,286046995.0,N
1522410815.6,286046997.8,N
1522410835.4,286046999.1,N
1522410855.3,286046999.5,N
1522410875.1,286046999.3,N
1522410895.9,286046998.7,N
1522410915.7,286046999.3,N
1522410935.5,286046998.9,N
1522410955.4,286046999.6,N
1522410975.2,286046997.3,N
1522410995.1,286046997.6,N
1522410996.0,286046997.6,N
1522411015.8,286046997.3,N
1522411035.6,286046997.1,N
1522411055.5,286046999.6,N
1522411075.3,286046996.9,N
1522411095.1,286046999.4,N
1522411115.9,286046998.9,N
1522411135.7,286046999.0,N
1522411155.6,286046998.7,N
1522411175.4,286047000.5,N
1522411195.2,286047001.9,N
